Location: Bethel Church
(38.0159°N, 88.7292°W)
Time: 03:36:30
(UTC+00:00)

Cosmos 1782 - Pass Details

Date: 08 December 2021
Orbit: 537 x 548 km, 82.5° (Epoch: 21 January)

Event Time Altitude Azimuth Distance (km) Brightness Sun altitude
Rises 23:17:54 0° 200° (SSW) 2,700 7.0 -8.4°
Reaches altitude 10° 23:20:08 10° 207° (SSW) 1,811 6.2 -8.8°
Maximum altitude 23:23:57 44° 280° (W) 757 4.0 -9.5°
Drops below altitude 10° 23:27:48 10° 354° (N) 1,819 5.3 -10.2°
Sets 23:30:02 0° 1° (N) 2,714 6.1 -10.6°
